FALCON 9 DEB (50852 NORAD) Tracking and Keplerian Element Data

This shows tracking and keplerian element data for the satellite.

Feedback or suggestion? Click here.




ElementValue
Catalog50852
NameFALCON 9 DEB
Epoch Orbit250
Epoch Day22.3226912
Epoch Year2022
RAAN120.0436
Inclination53.1849
Eccentricity0.0016912
Argument of Perigee231.1774
Mean Anonmoly128.7766
Mean Motion16.41647729
Decay Rate0.06696167
L11 50852U 22001BB 22022.32269120 .06696167 12252-4 29257-3 0 9993
L22 50852 53.1849 120.0436 0016912 231.1774 128.7766 16.41647729 2503

Live tracking and technical data element details for FALCON 9 DEB (NORAD 50852). FALCON 9 DEB can be tracked NOW for your location showing map with azimuth and elevation plus other details from your city location.

Track the satellite on the map from your city or location and see movement details for azimuth, elevation, latitude, longitude, range, height, and movement on the map or in text.







IsCatalogInMostPopularTable: catalog: 50852, numindb: 3
Update: records affected: 1



GetName: 50852 FALCON 9 DEB

Hit Count: updated at: Mon, 24 Jan 2022 00:01:27 GMT